Salt Flat, TX

12:46 AM CST on February 27, 2017 (GMT -0600)
Guadalupe Pass

Weather History for KGDP - September, 2013

Change the Weather History Date:

Saturday, September 21, 2013

  Actual Average Record
Temperature  
Mean Temperature 64 °F -  
Max Temperature 73 °F 78 °F 93 °F (2012)
Min Temperature 55 °F 57 °F 48 °F (1999)
Degree Days  
Heating Degree Days 2    
Growing Degree Days 14 (Base 50)    
Moisture  
Dew Point 55 °F    
Average Humidity 87    
Maximum Humidity 100    
Minimum Humidity 57    
Precipitation  
Precipitation 0.00 in - - ()
Sea Level Pressure  
Sea Level Pressure 30.11 in    
Wind  
Wind Speed 13 mph (ENE)    
Max Wind Speed 20 mph    
Max Gust Speed -    
Visibility 6 miles    
Events Fog    
Averages and records for this station are not official NWS values.
T = Trace of Precipitation, MM = Missing Value Source: NWS Daily Summary

Daily Weather History Graph

Daily Weather History Graph

Search for Another Location

Airport or City:

Trip Planner

Search our weather history database for the weather conditions in past years. The results will help you decide how hot, cold, wet, or windy it might be!

Date:

Astronomy

Sep. 21, 2013 Rise Set
Actual Time 6:47 AM MDT 6:56 PM MDT
Civil Twilight 6:22 AM MDT 7:21 PM MDT
Nautical Twilight 5:54 AM MDT 7:49 PM MDT
Astronomical Twilight 5:25 AM MDT 8:18 PM MDT
Moon 8:21 PM MDT (9/21) 8:57 AM MDT (9/21)
Length of Visible Light 12h 58m
Length of Day
12h 09m
Waning Gibbous, 94% of the Moon is Illuminated
Sep 21
Waning Gibbous
Sep 26
Last Quarter
Oct 4
New
Oct 11
First Quarter
Oct 18
Full

Hourly Weather History & Observations

Time (MDT) Temp. Dew Point Humidity Pressure Visibility Wind Dir Wind Speed Gust Speed Precip Events Conditions
12:25 AM 57.9 °F 57.9 °F 100% 30.21 in 2.0 mi ENE 13.8 mph - N/A   Mist
12:29 AM 57.9 °F 57.0 °F 97% 30.21 in 3.0 mi ENE 15.0 mph - N/A   Overcast
12:51 AM 57.9 °F 57.0 °F 97% 30.03 in 5.0 mi ENE 15.0 mph - N/A   Overcast
1:05 AM 57.9 °F 57.0 °F 97% 30.20 in 6.0 mi ENE 18.4 mph - N/A   Overcast
1:32 AM 57.0 °F 55.9 °F 96% 30.20 in 6.0 mi ENE 18.4 mph - N/A   Mostly Cloudy
1:39 AM 57.0 °F 55.9 °F 96% 30.20 in 7.0 mi ENE 15.0 mph - N/A   Mostly Cloudy
1:47 AM 57.2 °F 57.2 °F 100% 30.20 in 6.0 mi NE 17.3 mph - N/A   Mostly Cloudy
1:51 AM 57.0 °F 55.9 °F 96% 30.02 in 6.0 mi NE 19.6 mph - N/A   Mostly Cloudy
2:34 AM 57.0 °F 55.9 °F 96% 30.20 in 8.0 mi NE 15.0 mph - N/A   Overcast
2:51 AM 57.0 °F 55.9 °F 96% 30.02 in 8.0 mi ENE 11.5 mph - N/A   Overcast
2:59 AM 57.0 °F 57.0 °F 100% 30.20 in 5.0 mi ENE 13.8 mph - N/A   Overcast
3:12 AM 57.0 °F 57.0 °F 100% 30.19 in 1.5 mi ENE 13.8 mph - N/A   Overcast
3:23 AM 57.0 °F 57.0 °F 100% 30.19 in 3.0 mi ENE 12.7 mph - N/A   Overcast
3:51 AM 57.0 °F 55.9 °F 96% 30.02 in 7.0 mi ENE 15.0 mph - N/A   Overcast
4:09 AM 57.0 °F 55.9 °F 96% 30.19 in 7.0 mi ENE 16.1 mph - N/A   Overcast
4:42 AM 57.0 °F 55.9 °F 96% 30.19 in 7.0 mi ENE 17.3 mph - N/A   Overcast
4:51 AM 57.0 °F 55.9 °F 96% 30.02 in 7.0 mi ENE 13.8 mph - N/A   Overcast
5:04 AM 57.0 °F 55.9 °F 96% 30.19 in 7.0 mi ENE 16.1 mph - N/A   Overcast
5:44 AM 55.9 °F 55.9 °F 100% 30.19 in 4.0 mi NE 16.1 mph - N/A   Overcast
5:51 AM 55.9 °F 55.9 °F 100% 30.03 in 4.0 mi ENE 15.0 mph - N/A   Overcast
6:46 AM 55.4 °F 55.4 °F 100% 30.21 in 1.5 mi ENE 12.7 mph - N/A   Overcast
6:51 AM 55.9 °F 55.9 °F 100% 30.05 in 1.0 mi ENE 12.7 mph - N/A   Overcast
6:59 AM 55.9 °F 55.9 °F 100% 30.21 in 0.5 mi ENE 12.7 mph - N/A Fog Fog
7:14 AM 55.9 °F 55.9 °F 100% 30.21 in 0.2 mi ENE 10.4 mph - N/A Fog Fog
7:46 AM 55.4 °F 55.4 °F 100% 30.22 in 0.2 mi ENE 10.4 mph - N/A Fog Fog
7:51 AM 55.9 °F 55.9 °F 100% 30.07 in 0.2 mi ENE 12.7 mph - N/A Fog Fog
8:22 AM 55.9 °F 55.9 °F 100% 30.23 in 0.2 mi ENE 12.7 mph - N/A Fog Fog
8:51 AM 57.0 °F 57.0 °F 100% 30.08 in 1.2 mi ENE 11.5 mph - N/A   Overcast
9:05 AM 57.0 °F 57.0 °F 100% 30.23 in 2.0 mi ENE 12.7 mph - N/A   Overcast
9:16 AM 57.0 °F 55.9 °F 96% 30.23 in 1.8 mi ENE 12.7 mph - N/A   Overcast
9:22 AM 57.0 °F 55.9 °F 96% 30.23 in 3.0 mi ENE 13.8 mph - N/A   Overcast
9:51 AM 57.9 °F 57.0 °F 97% 30.09 in 5.0 mi ENE 10.4 mph - N/A   Overcast
10:09 AM 57.9 °F 55.9 °F 93% 30.24 in 6.0 mi NE 10.4 mph - N/A   Overcast
10:42 AM 61.0 °F 55.9 °F 83% 30.24 in 6.0 mi East 9.2 mph - N/A   Haze
10:51 AM 61.0 °F 55.9 °F 83% 30.09 in 6.0 mi East 10.4 mph - N/A   Haze
11:51 AM 62.1 °F 55.0 °F 78% 30.08 in 7.0 mi East 9.2 mph - N/A   Overcast
12:51 PM 63.0 °F 54.0 °F 72% 30.06 in 7.0 mi East 10.4 mph - N/A   Overcast
1:51 PM 64.9 °F 54.0 °F 68% 30.03 in 7.0 mi ENE 6.9 mph - N/A   Mostly Cloudy
2:51 PM 66.9 °F 54.0 °F 63% 30.00 in 8.0 mi East 5.8 mph - N/A   Mostly Cloudy
2:58 PM 66.0 °F 53.1 °F 63% 30.17 in 8.0 mi NE 5.8 mph - N/A   Mostly Cloudy
3:05 PM 66.0 °F 54.0 °F 65% 30.17 in 8.0 mi NE 5.8 mph - N/A   Overcast
3:17 PM 66.9 °F 54.0 °F 63% 30.17 in 8.0 mi Calm Calm - N/A   Mostly Cloudy
3:51 PM 68.0 °F 54.0 °F 61% 29.96 in 8.0 mi East 3.5 mph - N/A   Scattered Clouds
4:00 PM 68.0 °F 54.0 °F 61% 30.14 in 8.0 mi Variable 3.5 mph - N/A   Mostly Cloudy
4:16 PM 69.1 °F 54.0 °F 58% 30.14 in 8.0 mi WSW 3.5 mph - N/A   Scattered Clouds
4:51 PM 72.0 °F 55.9 °F 57% 29.93 in 8.0 mi WSW 9.2 mph - N/A   Scattered Clouds
5:51 PM 69.1 °F 53.1 °F 57% 29.94 in 8.0 mi WSW 3.5 mph - N/A   Clear
6:51 PM 66.0 °F 53.1 °F 63% 29.95 in 8.0 mi ESE 5.8 mph - N/A   Partly Cloudy
7:51 PM 63.0 °F 54.0 °F 72% 29.96 in 9.0 mi East 6.9 mph - N/A   Clear
8:51 PM 61.0 °F 54.0 °F 78% 29.96 in 9.0 mi NE 8.1 mph - N/A   Clear
9:51 PM 61.0 °F 54.0 °F 78% 29.96 in 9.0 mi NNE 8.1 mph - N/A   Clear
10:51 PM 59.0 °F 53.1 °F 81% 29.96 in 9.0 mi NE 10.4 mph - N/A   Clear
11:51 PM 59.0 °F 53.1 °F 81% 29.95 in 9.0 mi NNE 6.9 mph - N/A   Clear